M I D A S
Marine Information and Data Acquisition System
Tripno 1126 of the Zeeleeuw from 2006-06-07 04:01:00 to 2006-06-07 13:57:39
Back to CruiseResearch ActivitiesStationsMapUnderway DataData graphs

EquipmentUnitsComments
TimeDGPSUTC
LatitudeDGPSDM.mWGS84
LongitudeDGPSDM.mWGS84
SpeedMeteo Stationm/sRelative wind speed
DirectionMeteo StationdegRelative wind direction
TemperatureMeteo Stationdeg CelciusAir temperature
PressureMeteo StationPaAtmospheric pressure
HumidityMeteo Station%Relative humidity
Missing or incorrect values are displayed as -999
Metereological data collected by the RV Zeeleeuw from 2006-06-07 04:00:49 to 2006-06-07 14:08:24
                                                                                    Next 1000 lines
Time Latitude Longitude Speed Direction Temperature Pressure Humidity
2006-06-07 04:00:59 51°13.603 2°56.094 -999 135 8.9 102850 92
2006-06-07 04:01:04 51°13.604 2°56.09 -999 147 8.9 102850 92
2006-06-07 04:01:09 51°13.605 2°56.085 -999 153 8.9 102850 92
2006-06-07 04:01:15 51°13.607 2°56.079 -999 161 8.9 102850 92
2006-06-07 04:01:19 51°13.608 2°56.074 -999 162 9 102850 92
2006-06-07 04:01:25 51°13.611 2°56.066 -999 162 9 102850 92
2006-06-07 04:01:30 51°13.613 2°56.059 -999 162 9 102850 92
2006-06-07 04:01:35 51°13.615 2°56.052 -999 166 9 102850 92
2006-06-07 04:01:39 51°13.617 2°56.045 -999 166 9 102850 92
2006-06-07 04:01:45 51°13.619 2°56.036 -999 169 9 102850 92
2006-06-07 04:01:50 51°13.621 2°56.028 -999 162 9 102850 92
2006-06-07 04:01:55 51°13.622 2°56.019 -999 166 9 102850 92
2006-06-07 04:02:00 51°13.624 2°56.011 -999 168 9 102850 92
2006-06-07 04:02:05 51°13.626 2°56.003 -999 165 9 102850 92
2006-06-07 04:02:10 51°13.627 2°55.994 -999 168 9 102850 92
2006-06-07 04:02:15 51°13.63 2°55.985 -999 170 9 102850 92
2006-06-07 04:02:20 51°13.632 2°55.976 -999 172 9 102850 92
2006-06-07 04:02:25 51°13.634 2°55.966 -999 171 9 102850 92
2006-06-07 04:02:29 51°13.636 2°55.958 -999 168 9 102850 92
2006-06-07 04:02:35 51°13.638 2°55.945 -999 166 9 102850 92
2006-06-07 04:02:40 51°13.641 2°55.935 -999 169 9 102850 92
2006-06-07 04:02:45 51°13.644 2°55.924 -999 169 9 102850 92
2006-06-07 04:02:50 51°13.647 2°55.913 -999 169 9 102850 92
2006-06-07 04:02:55 51°13.65 2°55.902 -999 169 9 102850 92
2006-06-07 04:03:00 51°13.653 2°55.89 -999 171 9 102850 91
2006-06-07 04:03:05 51°13.657 2°55.879 -999 174 9 102850 91
2006-06-07 04:03:10 51°13.66 2°55.868 -999 176 9 102840 91
2006-06-07 04:03:15 51°13.664 2°55.857 -999 173 9 102840 91
2006-06-07 04:03:20 51°13.668 2°55.846 -999 167 9 102850 91
2006-06-07 04:03:25 51°13.671 2°55.836 -999 168 9 102850 91
2006-06-07 04:03:30 51°13.674 2°55.826 -999 168 9 102850 91
2006-06-07 04:03:35 51°13.677 2°55.816 -999 170 9 102850 91
2006-06-07 04:03:40 51°13.68 2°55.807 -999 172 9 102850 92
2006-06-07 04:03:45 51°13.683 2°55.798 -999 174 9 102850 92
2006-06-07 04:03:49 51°13.685 2°55.791 -999 175 9 102850 92
2006-06-07 04:03:55 51°13.687 2°55.781 -999 176 9 102850 92
2006-06-07 04:04:00 51°13.69 2°55.773 -999 185 9 102840 91
2006-06-07 04:04:05 51°13.692 2°55.765 -999 192 9 102840 91
2006-06-07 04:04:10 51°13.694 2°55.757 -999 172 9 102850 92
2006-06-07 04:04:15 51°13.696 2°55.75 -999 174 9 102850 92
2006-06-07 04:04:20 51°13.698 2°55.743 -999 173 9 102850 92
2006-06-07 04:04:25 51°13.699 2°55.737 -999 164 9 102850 92
2006-06-07 04:04:29 51°13.7 2°55.733 -999 159 9.1 102850 92
2006-06-07 04:04:35 51°13.701 2°55.728 -999 149 9.1 102850 92
2006-06-07 04:04:39 51°13.701 2°55.727 -999 148 9.1 102850 92
2006-06-07 04:04:43 51°13.701 2°55.725 -999 146 9.1 102850 92
2006-06-07 04:04:49 51°13.702 2°55.725 -999 146 9.1 102840 92
2006-06-07 04:04:53 51°13.702 2°55.726 -999 145 9.1 102840 92
2006-06-07 04:04:58 51°13.703 2°55.728 -999 141 9.1 102840 91
2006-06-07 04:05:02 51°13.704 2°55.73 -999 139 9.1 102840 91
2006-06-07 04:05:09 51°13.706 2°55.734 -999 139 9.1 102840 91
2006-06-07 04:05:14 51°13.708 2°55.738 -999 138 9.1 102840 91
2006-06-07 04:05:19 51°13.71 2°55.741 -999 124 9.1 102840 91
2006-06-07 04:05:25 51°13.713 2°55.744 -999 66 9.1 102840 91
2006-06-07 04:05:28 51°13.714 2°55.746 -999 60 9.1 102840 91
2006-06-07 04:05:33 51°13.715 2°55.747 -999 82 9.1 102840 91
2006-06-07 04:05:39 51°13.716 2°55.748 -999 108 9.1 102840 91
2006-06-07 04:05:43 51°13.716 2°55.748 -999 112 9.1 102840 91
2006-06-07 04:05:49 51°13.715 2°55.748 -999 149 9 102840 91
2006-06-07 04:05:54 51°13.713 2°55.746 -999 166 9 102840 91
2006-06-07 04:05:59 51°13.712 2°55.745 -999 171 9 102850 91
2006-06-07 04:06:05 51°13.71 2°55.743 -999 170 9 102850 91
2006-06-07 04:06:09 51°13.709 2°55.742 -999 172 9.1 102840 91
2006-06-07 04:06:15 51°13.707 2°55.741 -999 171 9.1 102840 91
2006-06-07 04:06:20 51°13.706 2°55.74 -999 170 9.1 102840 91
2006-06-07 04:06:25 51°13.706 2°55.74 -999 167 9.1 102840 91
2006-06-07 04:06:29 51°13.707 2°55.74 -999 118 9.1 102850 91
2006-06-07 04:06:35 51°13.708 2°55.741 -999 13 9.1 102850 91
2006-06-07 04:06:40 51°13.711 2°55.741 -999 15 9.1 102840 91
2006-06-07 04:06:45 51°13.714 2°55.74 -999 354 9.1 102840 91
2006-06-07 04:06:50 51°13.717 2°55.739 -999 -999 9.1 102840 91
2006-06-07 04:06:55 51°13.721 2°55.737 -999 -999 9.1 102840 91
2006-06-07 04:07:00 51°13.725 2°55.734 -999 356 9.2 102840 91
2006-06-07 04:07:05 51°13.73 2°55.73 -999 360 9.2 102840 91
2006-06-07 04:07:09 51°13.734 2°55.726 -999 352 9.2 102840 91
2006-06-07 04:07:13 51°13.739 2°55.722 -999 349 9.2 102840 91
2006-06-07 04:07:19 51°13.746 2°55.716 -999 352 9.2 102840 91
2006-06-07 04:07:23 51°13.75 2°55.712 -999 356 9.2 102840 91
2006-06-07 04:07:29 51°13.758 2°55.704 -999 356 9.2 102840 91
2006-06-07 04:07:34 51°13.766 2°55.697 -999 -999 9.2 102840 91
2006-06-07 04:07:39 51°13.774 2°55.689 -999 2 9.2 102840 91
2006-06-07 04:07:45 51°13.784 2°55.68 -999 2 9.2 102840 91
2006-06-07 04:07:49 51°13.791 2°55.673 -999 360 9.2 102840 91
2006-06-07 04:07:53 51°13.799 2°55.666 -999 2 9.2 102840 91
2006-06-07 04:07:59 51°13.811 2°55.654 -999 4 9.2 102840 91
2006-06-07 04:08:03 51°13.82 2°55.647 -999 2 9.2 102840 91
2006-06-07 04:08:09 51°13.833 2°55.636 -999 360 9.2 102840 91
2006-06-07 04:08:14 51°13.844 2°55.627 -999 9 9.2 102840 91
2006-06-07 04:08:18 51°13.854 2°55.619 -999 5 9.2 102840 91
2006-06-07 04:08:25 51°13.87 2°55.605 -999 8 9.2 102840 91
2006-06-07 04:08:28 51°13.877 2°55.6 -999 3 9.2 102840 90
2006-06-07 04:08:33 51°13.889 2°55.591 -999 5 9.2 102840 90
2006-06-07 04:08:39 51°13.904 2°55.579 -999 7 9.2 102840 90
2006-06-07 04:08:43 51°13.914 2°55.572 -999 6 9.2 102840 90
2006-06-07 04:08:49 51°13.929 2°55.561 -999 5 9.3 102840 90
2006-06-07 04:08:53 51°13.939 2°55.553 -999 8 9.3 102840 90
2006-06-07 04:08:59 51°13.954 2°55.542 -999 7 9.2 102840 90
2006-06-07 04:09:03 51°13.965 2°55.535 -999 6 9.2 102840 90
2006-06-07 04:09:09 51°13.98 2°55.524 -999 10 9.3 102840 90
2006-06-07 04:09:13 51°13.991 2°55.517 -999 12 9.3 102840 90
2006-06-07 04:09:19 51°14.006 2°55.507 -999 11 9.3 102840 90
2006-06-07 04:09:23 51°14.016 2°55.501 -999 6 9.3 102840 90
2006-06-07 04:09:29 51°14.03 2°55.491 -999 4 9.3 102840 90
2006-06-07 04:09:35 51°14.045 2°55.481 -999 6 9.3 102840 90
2006-06-07 04:09:39 51°14.054 2°55.475 -999 8 9.3 102840 90
2006-06-07 04:09:43 51°14.063 2°55.468 -999 10 9.3 102840 90
2006-06-07 04:09:49 51°14.077 2°55.459 -999 8 9.4 102840 90
2006-06-07 04:09:53 51°14.086 2°55.453 -999 10 9.4 102840 90
2006-06-07 04:09:59 51°14.099 2°55.443 -999 9 9.4 102840 90
2006-06-07 04:10:03 51°14.108 2°55.437 -999 10 9.4 102840 90
2006-06-07 04:10:08 51°14.119 2°55.429 -999 10 9.4 102840 90
2006-06-07 04:10:13 51°14.13 2°55.42 -999 6 9.4 102840 90
2006-06-07 04:10:19 51°14.144 2°55.409 -999 7 9.4 102840 90
2006-06-07 04:10:23 51°14.153 2°55.401 -999 5 9.4 102840 90
2006-06-07 04:10:28 51°14.165 2°55.392 -999 6 9.4 102840 90
2006-06-07 04:10:33 51°14.176 2°55.382 -999 3 9.4 102840 90
2006-06-07 04:10:39 51°14.19 2°55.368 -999 5 9.4 102840 90
2006-06-07 04:10:43 51°14.199 2°55.359 -999 359 9.4 102840 90
2006-06-07 04:10:49 51°14.213 2°55.343 -999 2 9.5 102840 89
2006-06-07 04:10:55 51°14.226 2°55.326 -999 2 9.5 102840 89
2006-06-07 04:10:58 51°14.232 2°55.318 -999 3 9.5 102840 89
2006-06-07 04:11:03 51°14.242 2°55.303 -999 358 9.5 102840 89
2006-06-07 04:11:09 51°14.254 2°55.284 -999 360 9.5 102840 89
2006-06-07 04:11:13 51°14.262 2°55.271 -999 2 9.5 102840 89
2006-06-07 04:11:19 51°14.274 2°55.25 -999 1 9.5 102840 89
2006-06-07 04:11:23 51°14.282 2°55.236 -999 -999 9.5 102840 89
2006-06-07 04:11:29 51°14.293 2°55.214 -999 360 9.6 102840 89
2006-06-07 04:11:33 51°14.301 2°55.199 -999 359 9.6 102840 89
2006-06-07 04:11:39 51°14.312 2°55.177 -999 360 9.6 102840 89
2006-06-07 04:11:43 51°14.319 2°55.161 -999 2 9.6 102840 89
2006-06-07 04:11:49 51°14.33 2°55.138 -999 1 9.6 102840 89
2006-06-07 04:11:55 51°14.341 2°55.115 -999 1 9.6 102840 89
2006-06-07 04:11:59 51°14.349 2°55.101 -999 357 9.6 102840 89
2006-06-07 04:12:03 51°14.358 2°55.086 -999 1 9.6 102840 89
2006-06-07 04:12:09 51°14.371 2°55.064 -999 4 9.6 102840 88
2006-06-07 04:12:13 51°14.38 2°55.05 -999 3 9.6 102840 88
2006-06-07 04:12:19 51°14.394 2°55.028 -999 1 9.7 102840 88
2006-06-07 04:12:24 51°14.406 2°55.008 -999 3 9.7 102840 88
2006-06-07 04:12:28 51°14.416 2°54.993 -999 2 9.7 102840 88
2006-06-07 04:12:33 51°14.427 2°54.973 -999 1 9.7 102840 88
2006-06-07 04:12:39 51°14.442 2°54.948 -999 2 9.7 102850 88
2006-06-07 04:12:43 51°14.451 2°54.931 -999 1 9.7 102850 88
2006-06-07 04:12:48 51°14.463 2°54.91 -999 -999 9.8 102840 88
2006-06-07 04:12:54 51°14.477 2°54.884 -999 359 9.8 102840 88
2006-06-07 04:12:59 51°14.489 2°54.863 -999 -999 9.8 102840 88
2006-06-07 04:13:03 51°14.498 2°54.846 -999 -999 9.8 102840 88
2006-06-07 04:13:09 51°14.512 2°54.82 -999 1 9.8 102840 88
2006-06-07 04:13:13 51°14.521 2°54.803 -999 1 9.8 102840 88
2006-06-07 04:13:19 51°14.536 2°54.777 -999 -999 9.9 102840 88
2006-06-07 04:13:23 51°14.545 2°54.76 -999 358 9.9 102840 88
2006-06-07 04:13:29 51°14.56 2°54.735 -999 359 9.9 102840 88
2006-06-07 04:13:33 51°14.57 2°54.719 -999 357 9.9 102840 88
2006-06-07 04:13:39 51°14.585 2°54.694 -999 358 10 102830 88
2006-06-07 04:13:43 51°14.595 2°54.678 -999 357 10 102830 88
2006-06-07 04:13:48 51°14.608 2°54.657 -999 356 10 102830 88
2006-06-07 04:13:53 51°14.621 2°54.637 -999 354 10 102830 88
2006-06-07 04:13:59 51°14.635 2°54.612 -999 357 10 102830 87
2006-06-07 04:14:05 51°14.65 2°54.586 -999 353 10 102830 87
2006-06-07 04:14:08 51°14.657 2°54.573 -999 351 10 102830 87
2006-06-07 04:14:13 51°14.668 2°54.55 -999 355 10 102830 87
2006-06-07 04:14:19 51°14.681 2°54.523 -999 352 10.1 102840 87
2006-06-07 04:14:24 51°14.691 2°54.501 -999 352 10.1 102840 87
2006-06-07 04:14:29 51°14.702 2°54.478 -999 350 10.1 102830 87
2006-06-07 04:14:33 51°14.711 2°54.459 -999 351 10.1 102830 87
2006-06-07 04:14:39 51°14.724 2°54.432 -999 351 10.1 102830 87
2006-06-07 04:14:45 51°14.738 2°54.404 -999 354 10.1 102830 87
2006-06-07 04:14:49 51°14.747 2°54.386 -999 350 10.2 102830 87
2006-06-07 04:14:54 51°14.759 2°54.365 -999 349 10.2 102830 87
2006-06-07 04:14:59 51°14.771 2°54.344 -999 350 10.2 102830 86
2006-06-07 04:15:05 51°14.786 2°54.319 -999 349 10.2 102830 86
2006-06-07 04:15:09 51°14.796 2°54.303 -999 349 10.2 102830 86
2006-06-07 04:15:13 51°14.807 2°54.287 -999 355 10.2 102830 86
2006-06-07 04:15:19 51°14.822 2°54.264 -999 348 10.2 102830 86
2006-06-07 04:15:24 51°14.835 2°54.243 -999 355 10.2 102830 86
2006-06-07 04:15:29 51°14.848 2°54.224 -999 349 10.2 102830 86
2006-06-07 04:15:33 51°14.858 2°54.207 -999 352 10.2 102830 86
2006-06-07 04:15:39 51°14.873 2°54.183 -999 350 10.2 102830 86
2006-06-07 04:15:43 51°14.883 2°54.167 -999 351 10.2 102830 86
2006-06-07 04:15:48 51°14.895 2°54.147 -999 352 10.2 102830 86
2006-06-07 04:15:53 51°14.908 2°54.126 -999 353 10.2 102830 86
2006-06-07 04:15:59 51°14.923 2°54.103 -999 351 10.3 102830 86
2006-06-07 04:16:04 51°14.936 2°54.084 -999 355 10.3 102830 86
2006-06-07 04:16:09 51°14.949 2°54.064 -999 353 10.3 102830 86
2006-06-07 04:16:15 51°14.964 2°54.041 -999 356 10.3 102830 86
2006-06-07 04:16:19 51°14.974 2°54.026 -999 357 10.3 102830 85
2006-06-07 04:16:24 51°14.987 2°54.007 -999 353 10.3 102830 85
2006-06-07 04:16:29 51°15 2°53.987 -999 353 10.3 102840 85
2006-06-07 04:16:33 51°15.009 2°53.97 -999 350 10.3 102840 85
2006-06-07 04:16:39 51°15.023 2°53.944 -999 352 10.3 102830 85
2006-06-07 04:16:43 51°15.032 2°53.926 -999 348 10.3 102830 85
2006-06-07 04:16:48 51°15.042 2°53.904 -999 348 10.3 102830 85
2006-06-07 04:16:53 51°15.052 2°53.879 -999 348 10.3 102830 85
2006-06-07 04:16:59 51°15.064 2°53.85 -999 347 10.3 102830 85
2006-06-07 04:17:03 51°15.072 2°53.831 -999 349 10.3 102830 85
2006-06-07 04:17:09 51°15.084 2°53.802 -999 349 10.3 102830 85
2006-06-07 04:17:14 51°15.095 2°53.779 -999 350 10.3 102830 85
2006-06-07 04:17:19 51°15.107 2°53.756 -999 354 10.4 102830 85
2006-06-07 04:17:25 51°15.121 2°53.731 -999 354 10.4 102830 85
2006-06-07 04:17:28 51°15.128 2°53.718 -999 353 10.4 102830 85
2006-06-07 04:17:33 51°15.14 2°53.697 -999 354 10.4 102830 85
2006-06-07 04:17:39 51°15.155 2°53.672 -999 353 10.4 102830 85
2006-06-07 04:17:43 51°15.165 2°53.654 -999 351 10.4 102830 85
2006-06-07 04:17:48 51°15.176 2°53.632 -999 354 10.4 102830 85
2006-06-07 04:17:53 51°15.188 2°53.61 -999 356 10.4 102830 85
2006-06-07 04:17:59 51°15.2 2°53.582 -999 354 10.4 102830 85
2006-06-07 04:18:03 51°15.209 2°53.562 -999 353 10.4 102830 85
2006-06-07 04:18:09 51°15.221 2°53.533 -999 355 10.5 102830 85
2006-06-07 04:18:14 51°15.23 2°53.508 -999 355 10.5 102830 85
2006-06-07 04:18:19 51°15.239 2°53.482 -999 356 10.5 102830 85
2006-06-07 04:18:25 51°15.249 2°53.451 -999 354 10.5 102830 85
2006-06-07 04:18:29 51°15.256 2°53.43 -999 355 10.5 102820 85
2006-06-07 04:18:33 51°15.263 2°53.409 -999 352 10.5 102820 85
2006-06-07 04:18:39 51°15.272 2°53.377 -999 353 10.5 102830 85
2006-06-07 04:18:43 51°15.279 2°53.356 -999 353 10.5 102830 85
2006-06-07 04:18:49 51°15.289 2°53.325 -999 354 10.5 102830 85
2006-06-07 04:18:53 51°15.296 2°53.304 -999 350 10.5 102830 85
2006-06-07 04:18:59 51°15.307 2°53.273 -999 354 10.5 102820 84
2006-06-07 04:19:05 51°15.318 2°53.242 -999 352 10.5 102820 84
2006-06-07 04:19:09 51°15.326 2°53.222 -999 351 10.5 102830 84
2006-06-07 04:19:13 51°15.334 2°53.202 -999 349 10.5 102830 84
2006-06-07 04:19:19 51°15.346 2°53.173 -999 353 10.5 102830 84
2006-06-07 04:19:24 51°15.356 2°53.148 -999 349 10.5 102830 84
2006-06-07 04:19:28 51°15.363 2°53.128 -999 351 10.5 102830 84
2006-06-07 04:19:35 51°15.374 2°53.09 -999 347 10.5 102830 84
2006-06-07 04:19:39 51°15.379 2°53.069 -999 350 10.6 102830 84
2006-06-07 04:19:44 51°15.384 2°53.04 -999 347 10.6 102830 84
2006-06-07 04:19:49 51°15.389 2°53.012 -999 348 10.6 102830 84
2006-06-07 04:19:55 51°15.392 2°52.976 -999 351 10.6 102830 84
2006-06-07 04:19:59 51°15.395 2°52.953 -999 351 10.6 102830 84
2006-06-07 04:20:04 51°15.397 2°52.923 -999 351 10.6 102830 84
2006-06-07 04:20:09 51°15.399 2°52.893 -999 351 10.6 102830 84
2006-06-07 04:20:15 51°15.4 2°52.856 -999 350 10.6 102830 84
2006-06-07 04:20:19 51°15.401 2°52.832 -999 348 10.6 102830 84
2006-06-07 04:20:24 51°15.402 2°52.802 -999 352 10.6 102830 84
2006-06-07 04:20:28 51°15.403 2°52.777 -999 351 10.6 102830 84
2006-06-07 04:20:35 51°15.404 2°52.734 -999 352 10.6 102830 84
2006-06-07 04:20:39 51°15.404 2°52.71 -999 353 10.6 102820 84
2006-06-07 04:20:43 51°15.405 2°52.686 -999 351 10.6 102820 84
2006-06-07 04:20:49 51°15.406 2°52.649 -999 352 10.6 102830 84
2006-06-07 04:20:53 51°15.406 2°52.625 -999 349 10.6 102830 84
2006-06-07 04:21:00 51°15.409 2°52.582 -999 351 10.6 102830 84
2006-06-07 04:21:05 51°15.411 2°52.552 -999 350 10.6 102830 84
2006-06-07 04:21:09 51°15.413 2°52.528 -999 348 10.7 102820 84
2006-06-07 04:21:13 51°15.415 2°52.504 -999 349 10.7 102820 84
2006-06-07 04:21:19 51°15.418 2°52.468 -999 354 10.7 102830 84
2006-06-07 04:21:23 51°15.42 2°52.444 -999 354 10.7 102830 84
2006-06-07 04:21:29 51°15.422 2°52.407 -999 354 10.7 102830 84
2006-06-07 04:21:33 51°15.424 2°52.383 -999 353 10.7 102830 84
2006-06-07 04:21:39 51°15.426 2°52.347 -999 353 10.7 102830 84
2006-06-07 04:21:45 51°15.428 2°52.311 -999 355 10.7 102830 84
2006-06-07 04:21:49 51°15.429 2°52.286 -999 355 10.7 102830 84
2006-06-07 04:21:53 51°15.43 2°52.262 -999 357 10.7 102830 84
2006-06-07 04:21:59 51°15.432 2°52.226 -999 355 10.7 102830 84
2006-06-07 04:22:03 51°15.433 2°52.201 -999 353 10.7 102830 84
2006-06-07 04:22:09 51°15.436 2°52.165 -999 356 10.7 102830 84
2006-06-07 04:22:15 51°15.439 2°52.129 -999 353 10.7 102830 84
2006-06-07 04:22:19 51°15.441 2°52.105 -999 353 10.7 102830 84
2006-06-07 04:22:24 51°15.444 2°52.075 -999 350 10.7 102830 84
2006-06-07 04:22:29 51°15.447 2°52.045 -999 352 10.7 102830 84
2006-06-07 04:22:33 51°15.45 2°52.021 -999 351 10.7 102830 84
2006-06-07 04:22:39 51°15.454 2°51.985 -999 351 10.7 102830 84
2006-06-07 04:22:43 51°15.456 2°51.961 -999 348 10.7 102830 84
2006-06-07 04:22:49 51°15.46 2°51.926 -999 351 10.7 102830 84
2006-06-07 04:22:53 51°15.463 2°51.902 -999 349 10.7 102830 84
2006-06-07 04:22:59 51°15.467 2°51.866 -999 352 10.7 102820 84
2006-06-07 04:23:03 51°15.469 2°51.842 -999 349 10.7 102820 84
2006-06-07 04:23:08 51°15.472 2°51.811 -999 346 10.7 102830 84
2006-06-07 04:23:13 51°15.475 2°51.782 -999 353 10.7 102830 84
2006-06-07 04:23:18 51°15.478 2°51.752 -999 354 10.8 102830 84
2006-06-07 04:23:23 51°15.48 2°51.722 -999 353 10.8 102830 84
2006-06-07 04:23:29 51°15.483 2°51.686 -999 350 10.8 102820 84
2006-06-07 04:23:34 51°15.485 2°51.655 -999 350 10.8 102820 84
2006-06-07 04:23:39 51°15.487 2°51.625 -999 354 10.8 102830 84
2006-06-07 04:23:45 51°15.49 2°51.589 -999 353 10.8 102830 84
2006-06-07 04:23:49 51°15.491 2°51.565 -999 350 10.8 102820 84
2006-06-07 04:23:54 51°15.494 2°51.535 -999 348 10.8 102820 84
2006-06-07 04:23:59 51°15.496 2°51.505 -999 348 10.8 102830 84
2006-06-07 04:24:05 51°15.499 2°51.469 -999 347 10.8 102830 84
2006-06-07 04:24:09 51°15.502 2°51.445 -999 350 10.8 102830 84
2006-06-07 04:24:15 51°15.506 2°51.41 -999 351 10.8 102830 84
2006-06-07 04:24:19 51°15.508 2°51.386 -999 349 10.8 102830 84
2006-06-07 04:24:23 51°15.511 2°51.362 -999 346 10.8 102830 84
2006-06-07 04:24:28 51°15.515 2°51.332 -999 348 10.8 102820 84
2006-06-07 04:24:33 51°15.519 2°51.303 -999 349 10.8 102820 84
2006-06-07 04:24:39 51°15.524 2°51.267 -999 348 10.8 102830 84
2006-06-07 04:24:44 51°15.528 2°51.238 -999 353 10.8 102830 84
2006-06-07 04:24:49 51°15.531 2°51.208 -999 349 10.8 102820 84
2006-06-07 04:24:55 51°15.535 2°51.172 -999 350 10.8 102820 84
2006-06-07 04:24:59 51°15.538 2°51.148 -999 350 10.8 102820 84
2006-06-07 04:25:03 51°15.541 2°51.124 -999 353 10.8 102820 84
2006-06-07 04:25:09 51°15.545 2°51.088 -999 350 10.8 102830 84
2006-06-07 04:25:15 51°15.548 2°51.052 -999 351 10.8 102830 84
2006-06-07 04:25:19 51°15.551 2°51.028 -999 352 10.9 102830 84
2006-06-07 04:25:25 51°15.555 2°50.993 -999 353 10.9 102830 84
2006-06-07 04:25:29 51°15.558 2°50.969 -999 352 10.9 102830 84
2006-06-07 04:25:33 51°15.56 2°50.945 -999 348 10.9 102830 84
2006-06-07 04:25:39 51°15.565 2°50.909 -999 348 10.9 102830 84
2006-06-07 04:25:43 51°15.567 2°50.885 -999 348 10.9 102830 84
2006-06-07 04:25:49 51°15.571 2°50.849 -999 348 10.9 102820 84
2006-06-07 04:25:53 51°15.574 2°50.825 -999 350 10.9 102820 84
2006-06-07 04:25:59 51°15.578 2°50.789 -999 345 10.9 102830 84
2006-06-07 04:26:03 51°15.581 2°50.765 -999 351 10.9 102830 84
2006-06-07 04:26:08 51°15.584 2°50.735 -999 349 10.9 102830 84
2006-06-07 04:26:13 51°15.588 2°50.705 -999 345 10.9 102830 84
2006-06-07 04:26:19 51°15.592 2°50.669 -999 349 10.9 102820 84
2006-06-07 04:26:23 51°15.595 2°50.645 -999 346 10.9 102820 84
2006-06-07 04:26:29 51°15.6 2°50.609 -999 348 10.9 102820 84
2006-06-07 04:26:34 51°15.603 2°50.579 -999 346 10.9 102820 84
2006-06-07 04:26:39 51°15.606 2°50.549 -999 348 10.9 102830 84
2006-06-07 04:26:44 51°15.61 2°50.519 -999 347 10.9 102830 84
2006-06-07 04:26:49 51°15.613 2°50.489 -999 351 10.8 102830 84
2006-06-07 04:26:53 51°15.616 2°50.465 -999 352 10.8 102830 84
2006-06-07 04:26:59 51°15.619 2°50.429 -999 350 10.9 102820 84
2006-06-07 04:27:03 51°15.622 2°50.405 -999 351 10.9 102820 84
2006-06-07 04:27:08 51°15.625 2°50.375 -999 351 10.9 102830 84
2006-06-07 04:27:13 51°15.629 2°50.345 -999 354 10.9 102830 84
2006-06-07 04:27:19 51°15.633 2°50.309 -999 351 10.9 102830 84
2006-06-07 04:27:24 51°15.636 2°50.279 -999 355 10.9 102830 84
2006-06-07 04:27:29 51°15.641 2°50.25 -999 346 10.9 102820 84
2006-06-07 04:27:33 51°15.643 2°50.226 -999 353 10.9 102820 84
2006-06-07 04:27:39 51°15.648 2°50.19 -999 343 10.9 102830 84
2006-06-07 04:27:45 51°15.652 2°50.154 -999 344 10.9 102830 84
2006-06-07 04:27:49 51°15.655 2°50.131 -999 348 10.9 102820 84
2006-06-07 04:27:54 51°15.658 2°50.101 -999 348 10.9 102820 84
2006-06-07 04:27:59 51°15.661 2°50.071 -999 352 10.9 102820 84
2006-06-07 04:28:03 51°15.664 2°50.047 -999 354 10.9 102820 84
2006-06-07 04:28:09 51°15.667 2°50.012 -999 356 10.9 102830 84
2006-06-07 04:28:13 51°15.67 2°49.988 -999 354 10.9 102830 84
2006-06-07 04:28:19 51°15.673 2°49.952 -999 351 11 102820 84
2006-06-07 04:28:25 51°15.676 2°49.917 -999 353 11 102820 84
2006-06-07 04:28:29 51°15.679 2°49.893 -999 354 11 102820 84
2006-06-07 04:28:35 51°15.683 2°49.858 -999 356 11 102820 84
2006-06-07 04:28:39 51°15.685 2°49.835 -999 350 11 102830 84
2006-06-07 04:28:43 51°15.688 2°49.811 -999 353 11 102830 84
2006-06-07 04:28:49 51°15.693 2°49.776 -999 345 11 102820 84
2006-06-07 04:28:53 51°15.696 2°49.753 -999 350 11 102820 84
2006-06-07 04:28:59 51°15.7 2°49.718 -999 350 11 102820 84
2006-06-07 04:29:03 51°15.703 2°49.695 -999 352 11 102820 84
2006-06-07 04:29:09 51°15.708 2°49.66 -999 352 11 102820 84
2006-06-07 04:29:13 51°15.711 2°49.636 -999 351 11 102820 84
2006-06-07 04:29:19 51°15.714 2°49.601 -999 349 11 102830 84
2006-06-07 04:29:23 51°15.716 2°49.578 -999 350 11 102830 84
2006-06-07 04:29:29 51°15.72 2°49.543 -999 351 11 102830 84
2006-06-07 04:29:35 51°15.723 2°49.508 -999 353 11 102830 84
2006-06-07 04:29:39 51°15.725 2°49.484 -999 349 11 102830 84
2006-06-07 04:29:43 51°15.726 2°49.461 -999 354 11 102830 84
2006-06-07 04:29:49 51°15.73 2°49.426 -999 350 11 102820 84
2006-06-07 04:29:55 51°15.734 2°49.391 -999 352 11 102820 84
2006-06-07 04:29:59 51°15.736 2°49.368 -999 350 11 102830 84
2006-06-07 04:30:03 51°15.739 2°49.345 -999 349 11 102830 84
2006-06-07 04:30:08 51°15.743 2°49.316 -999 348 11 102820 84
2006-06-07 04:30:13 51°15.747 2°49.287 -999 349 11 102820 84
2006-06-07 04:30:18 51°15.751 2°49.259 -999 348 11 102830 84
2006-06-07 04:30:23 51°15.755 2°49.23 -999 350 11 102830 84
2006-06-07 04:30:29 51°15.76 2°49.196 -999 10 11 102830 84
2006-06-07 04:30:34 51°15.764 2°49.167 -999 11 11 102830 84
2006-06-07 04:30:39 51°15.768 2°49.138 -999 10 11 102830 84
2006-06-07 04:30:45 51°15.772 2°49.104 -999 7 11 102830 84
2006-06-07 04:30:49 51°15.775 2°49.081 -999 7 11 102810 84
2006-06-07 04:30:53 51°15.778 2°49.058 -999 6 11 102810 84
2006-06-07 04:30:59 51°15.782 2°49.023 -999 8 11 102830 84
2006-06-07 04:31:05 51°15.786 2°48.988 -999 6 11 102830 84
2006-06-07 04:31:09 51°15.789 2°48.964 -999 7 11 102840 84
2006-06-07 04:31:14 51°15.792 2°48.935 -999 7 11 102840 84
2006-06-07 04:31:19 51°15.794 2°48.905 -999 11 11 102840 84
2006-06-07 04:31:23 51°15.797 2°48.882 -999 10 11 102840 84
2006-06-07 04:31:29 51°15.8 2°48.846 -999 9 11 102830 83
2006-06-07 04:31:32 51°15.802 2°48.828 -999 8 11 102830 83
2006-06-07 04:31:39 51°15.806 2°48.787 -999 6 11 102840 83
2006-06-07 04:31:43 51°15.809 2°48.764 -999 7 11 102840 83
2006-06-07 04:31:49 51°15.814 2°48.729 -999 6 11 102840 83
2006-06-07 04:31:55 51°15.82 2°48.694 -999 2 11 102840 83
2006-06-07 04:31:59 51°15.823 2°48.671 -999 3 11 102840 83
2006-06-07 04:32:05 51°15.829 2°48.636 -999 4 11 102840 83
2006-06-07 04:32:09 51°15.833 2°48.613 -999 4 11 102840 83
2006-06-07 04:32:13 51°15.837 2°48.59 -999 2 11 102840 83
2006-06-07 04:32:19 51°15.842 2°48.555 -999 5 11 102840 83
2006-06-07 04:32:23 51°15.846 2°48.531 -999 4 11 102840 83
2006-06-07 04:32:28 51°15.85 2°48.502 -999 4 11 102830 83
2006-06-07 04:32:33 51°15.854 2°48.473 -999 4 11 102830 83
2006-06-07 04:32:39 51°15.858 2°48.437 -999 2 11 102840 83
2006-06-07 04:32:43 51°15.861 2°48.413 -999 353 11 102840 83
2006-06-07 04:32:49 51°15.865 2°48.377 -999 360 11 102840 83
2006-06-07 04:32:54 51°15.869 2°48.347 -999 357 11 102840 83
2006-06-07 04:32:59 51°15.873 2°48.318 -999 2 11.1 102830 83
2006-06-07 04:33:05 51°15.878 2°48.283 -999 358 11.1 102830 83
2006-06-07 04:33:09 51°15.882 2°48.259 -999 3 11.1 102830 83
2006-06-07 04:33:13 51°15.885 2°48.236 -999 3 11.1 102830 83
2006-06-07 04:33:19 51°15.891 2°48.2 -999 358 11.1 102830 83
2006-06-07 04:33:24 51°15.896 2°48.171 -999 355 11.1 102830 83
2006-06-07 04:33:29 51°15.9 2°48.141 -999 2 11.1 102830 83
2006-06-07 04:33:33 51°15.904 2°48.118 -999 359 11.1 102830 83
2006-06-07 04:33:39 51°15.909 2°48.082 -999 358 11.1 102830 83
2006-06-07 04:33:43 51°15.913 2°48.059 -999 357 11.1 102830 83
2006-06-07 04:33:49 51°15.919 2°48.023 -999 357 11.1 102830 82
2006-06-07 04:33:54 51°15.924 2°47.994 -999 359 11.1 102830 82
2006-06-07 04:33:59 51°15.93 2°47.965 -999 359 11.1 102830 82
2006-06-07 04:34:03 51°15.934 2°47.942 -999 358 11.1 102830 82
2006-06-07 04:34:08 51°15.941 2°47.913 -999 357 11.1 102830 82
2006-06-07 04:34:13 51°15.947 2°47.884 -999 1 11.1 102830 82
2006-06-07 04:34:19 51°15.954 2°47.85 -999 1 11.1 102840 82
2006-06-07 04:34:24 51°15.961 2°47.821 -999 4 11.1 102840 82
2006-06-07 04:34:29 51°15.967 2°47.793 -999 3 11.1 102830 82
2006-06-07 04:34:34 51°15.974 2°47.765 -999 5 11.1 102830 82
2006-06-07 04:34:39 51°15.98 2°47.736 -999 9 11.1 102830 82
2006-06-07 04:34:45 51°15.988 2°47.702 -999 5 11.1 102830 82
2006-06-07 04:34:49 51°15.993 2°47.679 -999 6 11.1 102830 82
2006-06-07 04:34:53 51°15.997 2°47.656 -999 7 11.1 102830 82
2006-06-07 04:34:59 51°16.005 2°47.621 -999 6 11.1 102830 82
2006-06-07 04:35:04 51°16.01 2°47.592 -999 4 11.1 102830 82
2006-06-07 04:35:09 51°16.016 2°47.563 -999 5 11.1 102830 82
2006-06-07 04:35:14 51°16.022 2°47.535 -999 3 11.1 102830 82
2006-06-07 04:35:19 51°16.028 2°47.506 -999 4 11.1 102830 81
2006-06-07 04:35:25 51°16.034 2°47.471 -999 3 11.1 102830 81
2006-06-07 04:35:29 51°16.038 2°47.448 -999 4 11.1 102840 81
2006-06-07 04:35:33 51°16.043 2°47.425 -999 4 11.1 102840 81
2006-06-07 04:35:39 51°16.05 2°47.391 -999 3 11.1 102840 81
2006-06-07 04:35:44 51°16.056 2°47.363 -999 358 11.1 102840 81
2006-06-07 04:35:49 51°16.062 2°47.335 -999 -999 11.1 102840 81
2006-06-07 04:35:53 51°16.067 2°47.313 -999 359 11.1 102840 81
2006-06-07 04:35:59 51°16.075 2°47.28 -999 3 11.1 102830 81
2006-06-07 04:36:03 51°16.08 2°47.258 -999 1 11.1 102830 81
2006-06-07 04:36:08 51°16.086 2°47.23 -999 4 11.1 102830 81
2006-06-07 04:36:13 51°16.092 2°47.202 -999 4 11.1 102830 81
2006-06-07 04:36:19 51°16.099 2°47.169 -999 5 11.1 102840 81
2006-06-07 04:36:24 51°16.105 2°47.141 -999 7 11.1 102840 81
2006-06-07 04:36:29 51°16.111 2°47.113 -999 8 11.1 102830 81
2006-06-07 04:36:35 51°16.119 2°47.08 -999 7 11.1 102830 81
2006-06-07 04:36:39 51°16.124 2°47.058 -999 7 11.1 102820 81
2006-06-07 04:36:45 51°16.131 2°47.025 -999 10 11.1 102820 81
2006-06-07 04:36:49 51°16.136 2°47.003 -999 8 11.1 102830 81
2006-06-07 04:36:53 51°16.141 2°46.981 -999 5 11.1 102830 81
2006-06-07 04:36:59 51°16.148 2°46.947 -999 7 11.1 102830 81
2006-06-07 04:37:05 51°16.155 2°46.914 -999 1 11.1 102830 81
2006-06-07 04:37:09 51°16.159 2°46.892 -999 5 11.1 102830 80
2006-06-07 04:37:13 51°16.163 2°46.87 -999 3 11.1 102830 80
2006-06-07 04:37:19 51°16.17 2°46.836 -999 3 11.1 102840 80
2006-06-07 04:37:23 51°16.174 2°46.814 -999 6 11.1 102840 80
2006-06-07 04:37:28 51°16.18 2°46.786 -999 5 11.1 102830 80
2006-06-07 04:37:33 51°16.185 2°46.759 -999 5 11.1 102830 80
2006-06-07 04:37:39 51°16.192 2°46.725 -999 5 11.1 102830 80
2006-06-07 04:37:45 51°16.199 2°46.692 -999 5 11.1 102830 80
2006-06-07 04:37:48 51°16.203 2°46.676 -999 4 11.1 102830 80
2006-06-07 04:37:55 51°16.211 2°46.638 -999 3 11.1 102830 80
2006-06-07 04:37:59 51°16.216 2°46.616 -999 4 11.1 102830 80
2006-06-07 04:38:04 51°16.222 2°46.588 -999 6 11.1 102830 80
2006-06-07 04:38:09 51°16.228 2°46.561 -999 5 11.1 102830 80
2006-06-07 04:38:15 51°16.235 2°46.528 -999 6 11.1 102830 80
2006-06-07 04:38:19 51°16.24 2°46.507 -999 2 11.1 102840 80
2006-06-07 04:38:23 51°16.244 2°46.485 -999 -999 11.1 102840 80
2006-06-07 04:38:29 51°16.251 2°46.452 -999 3 11.1 102830 80
2006-06-07 04:38:34 51°16.256 2°46.425 -999 6 11.1 102830 80
2006-06-07 04:38:39 51°16.261 2°46.397 -999 9 11.1 102830 80
2006-06-07 04:38:44 51°16.266 2°46.37 -999 8 11.1 102830 80
2006-06-07 04:38:49 51°16.271 2°46.342 -999 7 11.1 102840 80
2006-06-07 04:38:55 51°16.276 2°46.309 -999 3 11.1 102840 80
2006-06-07 04:38:59 51°16.28 2°46.287 -999 3 11.1 102830 80
2006-06-07 04:39:03 51°16.284 2°46.265 -999 2 11.1 102830 80
2006-06-07 04:39:08 51°16.289 2°46.237 -999 4 11.1 102840 80
2006-06-07 04:39:13 51°16.294 2°46.209 -999 6 11.1 102840 80
2006-06-07 04:39:19 51°16.3 2°46.177 -999 5 11.1 102830 80
2006-06-07 04:39:23 51°16.305 2°46.155 -999 3 11.1 102830 80
2006-06-07 04:39:29 51°16.312 2°46.123 -999 2 11.1 102830 80
2006-06-07 04:39:34 51°16.318 2°46.096 -999 2 11.1 102830 80
2006-06-07 04:39:39 51°16.325 2°46.07 -999 4 11.1 102840 80
2006-06-07 04:39:45 51°16.333 2°46.038 -999 3 11.1 102840 80
2006-06-07 04:39:49 51°16.338 2°46.017 -999 2 11.1 102830 79
2006-06-07 04:39:53 51°16.344 2°45.996 -999 8 11.1 102830 79
2006-06-07 04:39:59 51°16.353 2°45.965 -999 4 11.1 102830 79
2006-06-07 04:40:04 51°16.36 2°45.939 -999 4 11.1 102830 79
2006-06-07 04:40:09 51°16.368 2°45.913 -999 5 11.1 102840 79
2006-06-07 04:40:13 51°16.374 2°45.892 -999 5 11.1 102840 79
2006-06-07 04:40:19 51°16.383 2°45.861 -999 5 11.1 102830 79
2006-06-07 04:40:23 51°16.389 2°45.84 -999 6 11.1 102830 79
2006-06-07 04:40:29 51°16.398 2°45.808 -999 2 11.1 102840 79
2006-06-07 04:40:33 51°16.403 2°45.787 -999 3 11.1 102840 79
2006-06-07 04:40:39 51°16.412 2°45.756 -999 3 11.1 102840 79
2006-06-07 04:40:43 51°16.417 2°45.734 -999 359 11.1 102840 79
2006-06-07 04:40:49 51°16.426 2°45.703 -999 357 11.1 102830 79
2006-06-07 04:40:55 51°16.434 2°45.671 -999 359 11.1 102830 79
2006-06-07 04:40:59 51°16.44 2°45.65 -999 359 11.1 102840 79
2006-06-07 04:41:05 51°16.448 2°45.618 -999 358 11.1 102840 79
2006-06-07 04:41:09 51°16.454 2°45.597 -999 357 11.1 102840 79
2006-06-07 04:41:13 51°16.459 2°45.575 -999 358 11.1 102840 79
2006-06-07 04:41:19 51°16.467 2°45.543 -999 357 11.1 102840 79
2006-06-07 04:41:23 51°16.472 2°45.521 -999 1 11.1 102840 79
2006-06-07 04:41:29 51°16.479 2°45.489 -999 1 11.1 102830 79
2006-06-07 04:41:33 51°16.485 2°45.467 -999 2 11.1 102830 79
2006-06-07 04:41:39 51°16.493 2°45.435 -999 360 11.1 102840 79
2006-06-07 04:41:45 51°16.501 2°45.403 -999 -999 11.1 102840 79
2006-06-07 04:41:49 51°16.506 2°45.382 -999 3 11.2 102840 79
2006-06-07 04:41:53 51°16.512 2°45.361 -999 3 11.2 102840 79
2006-06-07 04:42:00 51°16.522 2°45.324 -999 5 11.1 102830 79
2006-06-07 04:42:05 51°16.529 2°45.297 -999 5 11.1 102830 79
2006-06-07 04:42:09 51°16.534 2°45.276 -999 5 11.1 102840 79
2006-06-07 04:42:13 51°16.54 2°45.254 -999 3 11.1 102840 79
2006-06-07 04:42:19 51°16.548 2°45.222 -999 5 11.1 102830 79
2006-06-07 04:42:25 51°16.555 2°45.189 -999 5 11.1 102830 79
2006-06-07 04:42:29 51°16.56 2°45.167 -999 2 11.1 102840 78
2006-06-07 04:42:35 51°16.568 2°45.134 -999 1 11.1 102840 78
2006-06-07 04:42:39 51°16.573 2°45.112 -999 3 11.1 102840 78
2006-06-07 04:42:43 51°16.577 2°45.09 -999 6 11.1 102840 78
2006-06-07 04:42:48 51°16.584 2°45.063 -999 6 11.1 102840 78
2006-06-07 04:42:53 51°16.59 2°45.036 -999 7 11.1 102840 78
2006-06-07 04:42:59 51°16.598 2°45.004 -999 3 11.1 102840 78
2006-06-07 04:43:05 51°16.607 2°44.972 -999 3 11.1 102840 78
2006-06-07 04:43:08 51°16.611 2°44.956 -999 3 11.1 102840 78
2006-06-07 04:43:15 51°16.622 2°44.92 -999 4 11.1 102840 78
2006-06-07 04:43:19 51°16.629 2°44.9 -999 359 11.1 102830 78
2006-06-07 04:43:23 51°16.636 2°44.88 -999 356 11.1 102830 78
2006-06-07 04:43:29 51°16.646 2°44.849 -999 352 11.1 102840 78
2006-06-07 04:43:33 51°16.652 2°44.829 -999 358 11.1 102840 78
2006-06-07 04:43:39 51°16.662 2°44.798 -999 359 11.1 102840 78
2006-06-07 04:43:43 51°16.669 2°44.777 -999 359 11.1 102840 78
2006-06-07 04:43:49 51°16.679 2°44.746 -999 355 11.1 102830 78
2006-06-07 04:43:53 51°16.685 2°44.726 -999 358 11.1 102830 78
2006-06-07 04:43:59 51°16.695 2°44.695 -999 357 11.2 102830 78
2006-06-07 04:44:05 51°16.705 2°44.664 -999 355 11.2 102830 78
2006-06-07 04:44:09 51°16.711 2°44.643 -999 355 11.2 102830 78
2006-06-07 04:44:13 51°16.717 2°44.622 -999 356 11.2 102830 78
2006-06-07 04:44:19 51°16.727 2°44.59 -999 355 11.2 102830 78
2006-06-07 04:44:25 51°16.736 2°44.559 -999 354 11.2 102830 78
2006-06-07 04:44:29 51°16.743 2°44.538 -999 357 11.2 102830 78
2006-06-07 04:44:33 51°16.749 2°44.517 -999 355 11.2 102830 78
2006-06-07 04:44:39 51°16.759 2°44.485 -999 359 11.2 102830 78
2006-06-07 04:44:43 51°16.765 2°44.464 -999 357 11.2 102830 78
2006-06-07 04:44:48 51°16.774 2°44.438 -999 358 11.2 102830 78
2006-06-07 04:44:53 51°16.782 2°44.412 -999 358 11.2 102830 78
2006-06-07 04:44:59 51°16.792 2°44.38 -999 359 11.2 102830 78
2006-06-07 04:45:04 51°16.8 2°44.354 -999 2 11.2 102830 78
2006-06-07 04:45:09 51°16.807 2°44.327 -999 1 11.2 102840 78
2006-06-07 04:45:14 51°16.815 2°44.3 -999 1 11.2 102840 78
2006-06-07 04:45:19 51°16.823 2°44.273 -999 360 11.1 102830 77
2006-06-07 04:45:24 51°16.83 2°44.246 -999 3 11.1 102830 77
2006-06-07 04:45:29 51°16.838 2°44.219 -999 354 11.2 102840 77
2006-06-07 04:45:33 51°16.844 2°44.198 -999 5 11.2 102840 77
2006-06-07 04:45:39 51°16.854 2°44.165 -999 5 11.2 102830 77
2006-06-07 04:45:43 51°16.86 2°44.144 -999 2 11.2 102830 77
2006-06-07 04:45:49 51°16.87 2°44.112 -999 358 11.2 102840 78
2006-06-07 04:45:55 51°16.88 2°44.08 -999 359 11.2 102840 78
2006-06-07 04:45:59 51°16.886 2°44.058 -999 2 11.2 102830 78
2006-06-07 04:46:03 51°16.893 2°44.037 -999 -999 11.2 102830 78
2006-06-07 04:46:09 51°16.903 2°44.005 -999 -999 11.2 102840 78
2006-06-07 04:46:13 51°16.909 2°43.984 -999 358 11.2 102840 78
2006-06-07 04:46:19 51°16.919 2°43.952 -999 359 11.2 102840 78
2006-06-07 04:46:24 51°16.927 2°43.925 -999 358 11.2 102840 78
2006-06-07 04:46:28 51°16.933 2°43.904 -999 -999 11.2 102830 78
2006-06-07 04:46:35 51°16.945 2°43.866 -999 358 11.2 102830 78
2006-06-07 04:46:39 51°16.952 2°43.845 -999 -999 11.2 102820 78
2006-06-07 04:46:45 51°16.962 2°43.814 -999 -999 11.2 102820 78
2006-06-07 04:46:49 51°16.97 2°43.794 -999 -999 11.2 102830 78
2006-06-07 04:46:55 51°16.982 2°43.764 -999 358 11.2 102830 78
2006-06-07 04:46:59 51°16.99 2°43.744 -999 358 11.2 102830 78
2006-06-07 04:47:04 51°16.999 2°43.719 -999 360 11.2 102830 78
2006-06-07 04:47:09 51°17.008 2°43.694 -999 -999 11.2 102830 78
2006-06-07 04:47:15 51°17.02 2°43.664 -999 358 11.2 102830 78
2006-06-07 04:47:19 51°17.027 2°43.644 -999 358 11.2 102830 78
2006-06-07 04:47:24 51°17.037 2°43.619 -999 358 11.2 102830 78
2006-06-07 04:47:28 51°17.045 2°43.599 -999 1 11.2 102830 78
2006-06-07 04:47:35 51°17.058 2°43.564 -999 -999 11.2 102830 78
2006-06-07 04:47:39 51°17.066 2°43.544 -999 5 11.2 102830 78
2006-06-07 04:47:45 51°17.077 2°43.514 -999 8 11.2 102830 78
2006-06-07 04:47:49 51°17.085 2°43.494 -999 9 11.2 102840 78
2006-06-07 04:47:55 51°17.096 2°43.463 -999 8 11.2 102840 78
2006-06-07 04:48:00 51°17.105 2°43.438 -999 7 11.2 102840 78
2006-06-07 04:48:05 51°17.115 2°43.412 -999 8 11.2 102840 78
2006-06-07 04:48:09 51°17.123 2°43.392 -999 7 11.2 102840 78
2006-06-07 04:48:13 51°17.13 2°43.372 -999 9 11.2 102840 78
2006-06-07 04:48:20 51°17.143 2°43.336 -999 8 11.2 102840 78
2006-06-07 04:48:25 51°17.152 2°43.311 -999 10 11.2 102840 78
2006-06-07 04:48:29 51°17.16 2°43.291 -999 10 11.2 102840 78
2006-06-07 04:48:33 51°17.166 2°43.27 -999 11 11.2 102840 78
2006-06-07 04:48:40 51°17.179 2°43.235 -999 10 11.2 102840 78
2006-06-07 04:48:45 51°17.188 2°43.209 -999 11 11.2 102840 78
2006-06-07 04:48:49 51°17.195 2°43.188 -999 14 11.2 102840 78
2006-06-07 04:48:53 51°17.203 2°43.168 -999 12 11.2 102840 78
2006-06-07 04:48:59 51°17.214 2°43.138 -999 10 11.2 102830 79
2006-06-07 04:49:05 51°17.226 2°43.109 -999 10 11.2 102830 79
2006-06-07 04:49:09 51°17.233 2°43.089 -999 9 11.2 102830 79
2006-06-07 04:49:13 51°17.241 2°43.069 -999 11 11.2 102830 79
2006-06-07 04:49:18 51°17.251 2°43.045 -999 8 11.2 102840 79
2006-06-07 04:49:25 51°17.265 2°43.01 -999 10 11.2 102840 79
2006-06-07 04:49:29 51°17.273 2°42.99 -999 15 11.2 102840 79
2006-06-07 04:49:35 51°17.284 2°42.96 -999 12 11.2 102840 79
2006-06-07 04:49:39 51°17.292 2°42.941 -999 14 11.2 102830 79
2006-06-07 04:49:43 51°17.299 2°42.921 -999 12 11.2 102830 79
2006-06-07 04:49:49 51°17.311 2°42.893 -999 11 11.2 102830 79
2006-06-07 04:49:55 51°17.322 2°42.863 -999 10 11.2 102830 79
2006-06-07 04:49:59 51°17.33 2°42.844 -999 6 11.2 102830 79
2006-06-07 04:50:03 51°17.338 2°42.825 -999 10 11.2 102830 79
2006-06-07 04:50:09 51°17.351 2°42.798 -999 6 11.2 102840 79
2006-06-07 04:50:15 51°17.364 2°42.77 -999 9 11.2 102840 79
2006-06-07 04:50:20 51°17.375 2°42.746 -999 9 11.2 102830 79
2006-06-07 04:50:23 51°17.382 2°42.732 -999 12 11.2 102830 79
2006-06-07 04:50:29 51°17.395 2°42.704 -999 10 11.2 102840 79
2006-06-07 04:50:33 51°17.404 2°42.685 -999 11 11.2 102840 79
2006-06-07 04:50:39 51°17.417 2°42.656 -999 8 11.2 102830 79
2006-06-07 04:50:45 51°17.43 2°42.627 -999 6 11.2 102830 79
2006-06-07 04:50:49 51°17.438 2°42.606 -999 8 11.2 102830 79
2006-06-07 04:50:55 51°17.45 2°42.576 -999 6 11.2 102830 79
2006-06-07 04:51:00 51°17.46 2°42.551 -999 6 11.2 102840 79
2006-06-07 04:51:03 51°17.466 2°42.536 -999 9 11.2 102840 79
2006-06-07 04:51:09 51°17.478 2°42.507 -999 11 11.1 102840 79
2006-06-07 04:51:13 51°17.487 2°42.487 -999 10 11.1 102840 79
2006-06-07 04:51:19 51°17.5 2°42.458 -999 10 11.1 102830 79
2006-06-07 04:51:25 51°17.512 2°42.428 -999 9 11.1 102830 79
2006-06-07 04:51:29 51°17.521 2°42.409 -999 12 11.1 102820 79
2006-06-07 04:51:35 51°17.534 2°42.379 -999 9 11.1 102820 79
2006-06-07 04:51:38 51°17.54 2°42.365 -999 6 11.2 102830 79
2006-06-07 04:51:45 51°17.556 2°42.331 -999 7 11.2 102830 79
2006-06-07 04:51:49 51°17.564 2°42.312 -999 9 11.1 102830 79
2006-06-07 04:51:53 51°17.573 2°42.293 -999 12 11.1 102830 79
2006-06-07 04:51:59 51°17.586 2°42.265 -999 10 11.1 102830 79
2006-06-07 04:52:05 51°17.6 2°42.236 -999 10 11.1 102830 79
2006-06-07 04:52:09 51°17.608 2°42.217 -999 10 11.1 102830 79
2006-06-07 04:52:13 51°17.617 2°42.198 -999 8 11.1 102830 79
2006-06-07 04:52:19 51°17.63 2°42.168 -999 10 11.1 102830 79
2006-06-07 04:52:23 51°17.638 2°42.149 -999 11 11.1 102830 79
2006-06-07 04:52:28 51°17.649 2°42.125 -999 9 11.1 102830 79
2006-06-07 04:52:35 51°17.664 2°42.091 -999 10 11.1 102830 79
2006-06-07 04:52:39 51°17.673 2°42.072 -999 11 11.1 102840 79
2006-06-07 04:52:44 51°17.684 2°42.048 -999 10 11.1 102840 79
2006-06-07 04:52:49 51°17.695 2°42.024 -999 11 11.1 102830 79
2006-06-07 04:52:53 51°17.704 2°42.005 -999 11 11.1 102830 79
2006-06-07 04:52:59 51°17.717 2°41.976 -999 12 11.1 102840 79
2006-06-07 04:53:05 51°17.73 2°41.947 -999 11 11.1 102840 79
2006-06-07 04:53:09 51°17.739 2°41.928 -999 12 11.1 102830 79
2006-06-07 04:53:14 51°17.75 2°41.904 -999 11 11.1 102830 79
2006-06-07 04:53:19 51°17.76 2°41.88 -999 12 11.1 102840 79
2006-06-07 04:53:25 51°17.774 2°41.851 -999 13 11.1 102840 79
2006-06-07 04:53:29 51°17.782 2°41.832 -999 10 11.1 102840 79
2006-06-07 04:53:33 51°17.791 2°41.812 -999 9 11.1 102840 79
2006-06-07 04:53:39 51°17.804 2°41.783 -999 11 11.1 102830 79
2006-06-07 04:53:45 51°17.817 2°41.755 -999 11 11.1 102830 79
2006-06-07 04:53:49 51°17.826 2°41.736 -999 12 11 102840 79
2006-06-07 04:53:55 51°17.839 2°41.707 -999 13 11 102840 79
2006-06-07 04:53:59 51°17.848 2°41.688 -999 10 11.1 102830 79
2006-06-07 04:54:04 51°17.859 2°41.664 -999 10 11.1 102830 79
2006-06-07 04:54:09 51°17.87 2°41.641 -999 9 11.1 102830 80
2006-06-07 04:54:15 51°17.883 2°41.612 -999 9 11.1 102830 80
2006-06-07 04:54:19 51°17.892 2°41.593 -999 6 11.1 102830 79
2006-06-07 04:54:24 51°17.903 2°41.569 -999 7 11.1 102830 79
2006-06-07 04:54:28 51°17.912 2°41.55 -999 7 11 102830 80
2006-06-07 04:54:35 51°17.927 2°41.517 -999 9 11 102830 80
2006-06-07 04:54:39 51°17.936 2°41.498 -999 9 11.1 102830 80
2006-06-07 04:54:45 51°17.949 2°41.469 -999 7 11.1 102830 80
2006-06-07 04:54:49 51°17.958 2°41.45 -999 6 11 102830 80
2006-06-07 04:54:55 51°17.971 2°41.421 -999 8 11 102830 80
2006-06-07 04:54:59 51°17.979 2°41.402 -999 7 11.1 102840 80
2006-06-07 04:55:03 51°17.988 2°41.383 -999 6 11.1 102840 80
2006-06-07 04:55:09 51°18.001 2°41.354 -999 4 11 102830 80
2006-06-07 04:55:13 51°18.01 2°41.335 -999 7 11 102830 80
2006-06-07 04:55:19 51°18.023 2°41.307 -999 6 11 102840 80
2006-06-07 04:55:23 51°18.032 2°41.288 -999 5 11 102840 80
2006-06-07 04:55:29 51°18.044 2°41.259 -999 5 11 102830 80
2006-06-07 04:55:34 51°18.055 2°41.234 -999 10 11 102830 80
2006-06-07 04:55:39 51°18.066 2°41.211 -999 13 11 102840 80
2006-06-07 04:55:45 51°18.079 2°41.183 -999 12 11 102840 80
2006-06-07 04:55:49 51°18.088 2°41.164 -999 10 11 102830 80
2006-06-07 04:55:54 51°18.099 2°41.14 -999 10 11 102830 80
2006-06-07 04:55:59 51°18.11 2°41.116 -999 12 11 102830 80
2006-06-07 04:56:05 51°18.122 2°41.087 -999 10 11 102830 80
2006-06-07 04:56:09 51°18.131 2°41.068 -999 10 11 102830 80
2006-06-07 04:56:12 51°18.137 2°41.053 -999 9 11 102840 80
2006-06-07 04:56:19 51°18.152 2°41.02 -999 7 11 102840 80
2006-06-07 04:56:24 51°18.163 2°40.996 -999 9 11 102840 80
2006-06-07 04:56:29 51°18.173 2°40.972 -999 9 11 102830 80
2006-06-07 04:56:35 51°18.186 2°40.944 -999 10 11 102830 80
2006-06-07 04:56:39 51°18.195 2°40.925 -999 8 11 102830 80
2006-06-07 04:56:45 51°18.208 2°40.896 -999 11 11 102840 80
2006-06-07 04:56:49 51°18.216 2°40.878 -999 12 11 102840 80
2006-06-07 04:56:53 51°18.225 2°40.858 -999 9 11 102840 80
2006-06-07 04:56:59 51°18.238 2°40.83 -999 10 11 102830 80
2006-06-07 04:57:04 51°18.248 2°40.806 -999 13 11 102830 80
2006-06-07 04:57:09 51°18.259 2°40.782 -999 13 11 102830 80
2006-06-07 04:57:14 51°18.27 2°40.758 -999 12 11 102830 80
2006-06-07 04:57:18 51°18.278 2°40.739 -999 13 11 102840 80
2006-06-07 04:57:24 51°18.291 2°40.71 -999 12 11 102840 80
2006-06-07 04:57:29 51°18.302 2°40.686 -999 11 11 102840 80
2006-06-07 04:57:34 51°18.313 2°40.662 -999 10 11 102840 80
2006-06-07 04:57:40 51°18.326 2°40.633 -999 10 11 102840 80
2006-06-07 04:57:44 51°18.334 2°40.614 -999 10 11 102830 80
2006-06-07 04:57:49 51°18.345 2°40.59 -999 11 11 102840 80
2006-06-07 04:57:55 51°18.358 2°40.561 -999 11 11 102840 80
2006-06-07 04:57:58 51°18.364 2°40.547 -999 14 11 102840 80
2006-06-07 04:58:03 51°18.375 2°40.523 -999 7 11 102830 80
2006-06-07 04:58:09 51°18.388 2°40.494 -999 10 11 102840 80
2006-06-07 04:58:14 51°18.399 2°40.471 -999 9 11 102840 80
2006-06-07 04:58:19 51°18.41 2°40.448 -999 9 11 102840 80
2006-06-07 04:58:25 51°18.423 2°40.419 -999 11 11 102840 80
2006-06-07 04:58:28 51°18.43 2°40.405 -999 11 11 102840 80
2006-06-07 04:58:35 51°18.446 2°40.372 -999 11 11 102840 80
2006-06-07 04:58:39 51°18.455 2°40.354 -999 7 11 102840 80
2006-06-07 04:58:44 51°18.465 2°40.33 -999 9 11 102840 80
2006-06-07 04:58:50 51°18.478 2°40.302 -999 9 11 102840 80
2006-06-07 04:58:52 51°18.482 2°40.292 -999 11 11 102830 80
2006-06-07 04:58:59 51°18.498 2°40.259 -999 9 11 102830 80
2006-06-07 04:59:04 51°18.509 2°40.235 -999 13 11 102830 80
2006-06-07 04:59:09 51°18.52 2°40.211 -999 12 11 102830 80
2006-06-07 04:59:13 51°18.529 2°40.193 -999 11 11 102820 80
2006-06-07 04:59:19 51°18.542 2°40.164 -999 11 11 102830 80
2006-06-07 04:59:24 51°18.553 2°40.14 -999 6 11 102830 80
2006-06-07 04:59:29 51°18.564 2°40.116 -999 15 11 102830 80
2006-06-07 04:59:35 51°18.577 2°40.087 -999 12 11 102830 80
2006-06-07 04:59:38 51°18.584 2°40.073 -999 13 10.9 102830 80
2006-06-07 04:59:44 51°18.597 2°40.043 -999 14 10.9 102830 80
2006-06-07 04:59:49 51°18.607 2°40.019 -999 15 11 102830 80
2006-06-07 04:59:54 51°18.618 2°39.995 -999 15 11 102830 80
2006-06-07 05:00:00 51°18.631 2°39.966 -999 16 10.9 102830 80
2006-06-07 05:00:05 51°18.642 2°39.942 -999 14 10.9 102830 80
2006-06-07 05:00:08 51°18.649 2°39.928 -999 13 11 102830 80
2006-06-07 05:00:15 51°18.665 2°39.895 -999 15 11 102830 80
2006-06-07 05:00:19 51°18.674 2°39.876 -999 16 11 102830 80
2006-06-07 05:00:24 51°18.685 2°39.852 -999 14 10.9 102840 80
2006-06-07 05:00:29 51°18.696 2°39.828 -999 12 10.9 102830 80
2006-06-07 05:00:35 51°18.709 2°39.8 -999 12 10.9 102830 80
2006-06-07 05:00:40 51°18.72 2°39.776 -999 8 10.9 102830 80
2006-06-07 05:00:44 51°18.729 2°39.758 -999 11 10.9 102830 80
2006-06-07 05:00:48 51°18.738 2°39.739 -999 13 10.9 102830 80
2006-06-07 05:00:55 51°18.753 2°39.706 -999 10 10.9 102830 80
2006-06-07 05:00:59 51°18.762 2°39.687 -999 8 10.9 102820 80
2006-06-07 05:01:04 51°18.774 2°39.664 -999 10 10.9 102820 80
2006-06-07 05:01:09 51°18.784 2°39.64 -999 12 10.9 102830 80
2006-06-07 05:01:15 51°18.798 2°39.612 -999 11 10.9 102830 80
2006-06-07 05:01:20 51°18.809 2°39.589 -999 11 10.9 102830 80
2006-06-07 05:01:24 51°18.818 2°39.57 -999 9 10.9 102830 80
2006-06-07 05:01:29 51°18.829 2°39.546 -999 8 10.9 102830 80
2006-06-07 05:01:34 51°18.84 2°39.522 -999 8 10.9 102830 80
2006-06-07 05:01:39 51°18.851 2°39.499 -999 6 10.9 102830 80
2006-06-07 05:01:44 51°18.862 2°39.475 -999 9 10.9 102830 80
2006-06-07 05:01:49 51°18.873 2°39.451 -999 7 10.9 102830 80
2006-06-07 05:01:53 51°18.881 2°39.432 -999 10 10.9 102830 80
2006-06-07 05:01:59 51°18.894 2°39.403 -999 6 10.9 102830 80
2006-06-07 05:02:05 51°18.907 2°39.374 -999 10 10.9 102830 80
2006-06-07 05:02:09 51°18.916 2°39.356 -999 9 10.9 102830 80
2006-06-07 05:02:13 51°18.925 2°39.337 -999 8 10.9 102830 80
2006-06-07 05:02:19 51°18.938 2°39.308 -999 10 10.9 102830 80
2006-06-07 05:02:24 51°18.95 2°39.285 -999 10 10.9 102830 80
2006-06-07 05:02:29 51°18.961 2°39.261 -999 10 10.9 102820 80
2006-06-07 05:02:34 51°18.972 2°39.238 -999 8 10.9 102820 80
2006-06-07 05:02:38 51°18.981 2°39.219 -999 10 10.9 102830 80
2006-06-07 05:02:44 51°18.994 2°39.19 -999 10 10.9 102830 80
2006-06-07 05:02:49 51°19.006 2°39.167 -999 8 10.9 102830 80
2006-06-07 05:02:55 51°19.019 2°39.138 -999 9 10.9 102830 80
2006-06-07 05:03:00 51°19.03 2°39.114 -999 9 10.9 102830 80
2006-06-07 05:03:04 51°19.039 2°39.096 -999 10 10.9 102830 80
2006-06-07 05:03:09 51°19.05 2°39.072 -999 8 10.9 102840 80
2006-06-07 05:03:15 51°19.063 2°39.043 -999 9 10.9 102840 80
2006-06-07 05:03:19 51°19.072 2°39.024 -999 9 10.9 102840 80
2006-06-07 05:03:25 51°19.085 2°38.996 -999 7 10.9 102830 80
2006-06-07 05:03:29 51°19.094 2°38.977 -999 10 10.9 102820 80
2006-06-07 05:03:33 51°19.102 2°38.958 -999 7 10.9 102820 80
2006-06-07 05:03:39 51°19.115 2°38.929 -999 6 10.9 102830 80
2006-06-07 05:03:44 51°19.126 2°38.905 -999 4 10.9 102830 80
2006-06-07 05:03:49 51°19.136 2°38.881 -999 8 10.9 102830 80
2006-06-07 05:03:55 51°19.149 2°38.853 -999 8 10.9 102830 80
2006-06-07 05:03:59 51°19.157 2°38.833 -999 6 10.9 102830 80
2006-06-07 05:04:05 51°19.169 2°38.805 -999 3 10.9 102830 80
2006-06-07 05:04:09 51°19.177 2°38.785 -999 4 10.9 102840 80
2006-06-07 05:04:14 51°19.188 2°38.761 -999 6 10.9 102840 80
2006-06-07 05:04:20 51°19.2 2°38.733 -999 7 10.9 102840 80
2006-06-07 05:04:25 51°19.211 2°38.709 -999 6 10.9 102830 80
2006-06-07 05:04:28 51°19.217 2°38.695 -999 6 10.9 102830 80
2006-06-07 05:04:35 51°19.232 2°38.662 -999 5 10.9 102830 80
2006-06-07 05:04:39 51°19.241 2°38.643 -999 5 10.9 102840 80
2006-06-07 05:04:44 51°19.251 2°38.62 -999 7 10.9 102840 80
2006-06-07 05:04:49 51°19.262 2°38.597 -999 10 10.9 102840 80
2006-06-07 05:04:55 51°19.274 2°38.569 -999 9 10.9 102840 80
2006-06-07 05:04:59 51°19.283 2°38.55 -999 7 10.9 102840 80
2006-06-07 05:05:05 51°19.295 2°38.521 -999 11 10.8 102840 80
2006-06-07 05:05:08 51°19.301 2°38.507 -999 8 10.8 102830 80
2006-06-07 05:05:15 51°19.316 2°38.473 -999 10 10.8 102830 80
2006-06-07 05:05:19 51°19.324 2°38.454 -999 10 10.9 102840 80
2006-06-07 05:05:24 51°19.335 2°38.43 -999 10 10.9 102840 80
2006-06-07 05:05:29 51°19.345 2°38.407 -999 6 10.8 102840 80
2006-06-07 05:05:35 51°19.358 2°38.379 -999 7 10.8 102840 80
2006-06-07 05:05:40 51°19.368 2°38.355 -999 4 10.8 102840 80
2006-06-07 05:05:44 51°19.377 2°38.337 -999 3 10.8 102840 80
2006-06-07 05:05:48 51°19.385 2°38.318 -999 4 10.8 102840 80
2006-06-07 05:05:55 51°19.4 2°38.286 -999 7 10.8 102840 80
2006-06-07 05:05:59 51°19.409 2°38.267 -999 7 10.8 102830 80
2006-06-07 05:06:04 51°19.419 2°38.243 -999 7 10.8 102830 80
2006-06-07 05:06:09 51°19.43 2°38.22 -999 7 10.8 102830 80
2006-06-07 05:06:15 51°19.442 2°38.192 -999 7 10.8 102840 80
2006-06-07 05:06:20 51°19.452 2°38.168 -999 7 10.8 102840 80
2006-06-07 05:06:24 51°19.461 2°38.149 -999 11 10.8 102840 80
2006-06-07 05:06:28 51°19.469 2°38.13 -999 8 10.8 102830 80
2006-06-07 05:06:35 51°19.483 2°38.097 -999 7 10.8 102830 80
2006-06-07 05:06:39 51°19.491 2°38.078 -999 5 10.8 102840 80
2006-06-07 05:06:44 51°19.502 2°38.054 -999 8 10.8 102840 80
2006-06-07 05:06:49 51°19.512 2°38.03 -999 5 10.8 102840 80
2006-06-07 05:06:55 51°19.525 2°38.003 -999 7 10.8 102840 80
2006-06-07 05:07:00 51°19.536 2°37.98 -999 4 10.8 102840 80
2006-06-07 05:07:05 51°19.548 2°37.957 -999 9 10.8 102840 80
2006-06-07 05:07:08 51°19.554 2°37.943 -999 -999 10.8 102840 80
2006-06-07 05:07:15 51°19.57 2°37.912 -999 3 10.8 102840 80
2006-06-07 05:07:19 51°19.579 2°37.895 -999 1 10.8 102840 80
2006-06-07 05:07:24 51°19.59 2°37.872 -999 -999 10.8 102840 80
2006-06-07 05:07:29 51°19.602 2°37.849 -999 2 10.8 102840 80
2006-06-07 05:07:35 51°19.615 2°37.823 -999 3 10.8 102840 80
2006-06-07 05:07:40 51°19.626 2°37.8 -999 2 10.8 102840 80
2006-06-07 05:07:44 51°19.635 2°37.782 -999 2 10.8 102840 80
2006-06-07 05:07:49 51°19.646 2°37.759 -999 2 10.8 102830 80
2006-06-07 05:07:55 51°19.659 2°37.731 -999 4 10.8 102830 80
2006-06-07 05:07:59 51°19.668 2°37.712 -999 6 10.8 102830 80
2006-06-07 05:08:05 51°19.681 2°37.684 -999 5 10.8 102840 80
2006-06-07 05:08:09 51°19.69 2°37.665 -999 6 10.8 102840 80
2006-06-07 05:08:13 51°19.699 2°37.647 -999 9 10.8 102840 80
2006-06-07 05:08:19 51°19.712 2°37.62 -999 10 10.8 102840 80
2006-06-07 05:08:24 51°19.723 2°37.596 -999 7 10.8 102840 80
2006-06-07 05:08:29 51°19.734 2°37.574 -999 8 10.8 102840 80
2006-06-07 05:08:34 51°19.745 2°37.552 -999 4 10.8 102850 80
2006-06-07 05:08:39 51°19.756 2°37.53 -999 3 10.8 102840 80
2006-06-07 05:08:45 51°19.768 2°37.506 -999 6 10.8 102840 80
2006-06-07 05:08:49 51°19.775 2°37.491 -999 6 10.8 102840 80
2006-06-07 05:08:55 51°19.786 2°37.468 -999 5 10.8 102840 80
2006-06-07 05:09:00 51°19.796 2°37.451 -999 7 10.8 102840 80
2006-06-07 05:09:05 51°19.805 2°37.433 -999 9 10.8 102840 80
2006-06-07 05:09:08 51°19.81 2°37.423 -999 8 10.8 102840 80
2006-06-07 05:09:15 51°19.822 2°37.398 -999 6 10.8 102840 80
2006-06-07 05:09:19 51°19.829 2°37.385 -999 6 10.8 102840 80
2006-06-07 05:09:24 51°19.837 2°37.368 -999 7 10.8 102850 80
2006-06-07 05:09:29 51°19.845 2°37.352 -999 9 10.8 102840 80
2006-06-07 05:09:35 51°19.853 2°37.334 -999 10 10.8 102840 80
2006-06-07 05:09:40 51°19.859 2°37.32 -999 9 10.8 102840 80
2006-06-07 05:09:45 51°19.865 2°37.306 -999 7 10.8 102840 80
2006-06-07 05:09:48 51°19.868 2°37.298 -999 13 10.8 102840 80
2006-06-07 05:09:55 51°19.876 2°37.279 -999 5 10.8 102840 80
2006-06-07 05:09:59 51°19.88 2°37.269 -999 9 10.8 102850 80
2006-06-07 05:10:04 51°19.885 2°37.256 -999 15 10.8 102850 80
2006-06-07 05:10:09 51°19.89 2°37.244 -999 11 10.8 102850 80
2006-06-07 05:10:15 51°19.895 2°37.23 -999 10 10.8 102850 80
2006-06-07 05:10:20 51°19.899 2°37.218 -999 9 10.8 102850 80
2006-06-07 05:10:24 51°19.903 2°37.209 -999 5 10.8 102840 80
2006-06-07 05:10:28 51°19.906 2°37.2 -999 4 10.8 102840 80
2006-06-07 05:10:35 51°19.912 2°37.185 -999 3 10.8 102840 80
2006-06-07 05:10:39 51°19.915 2°37.176 -999 3 10.8 102840 80
2006-06-07 05:10:44 51°19.919 2°37.166 -999 1 10.8 102840 80
2006-06-07 05:10:49 51°19.923 2°37.155 -999 358 10.8 102840 80
2006-06-07 05:10:53 51°19.926 2°37.147 -999 3 10.8 102840 80
2006-06-07 05:10:59 51°19.93 2°37.135 -999 354 10.8 102850 80
2006-06-07 05:11:04 51°19.934 2°37.126 -999 357 10.8 102850 80
2006-06-07 05:11:09 51°19.938 2°37.116 -999 355 10.8 102850 80
2006-06-07 05:11:13 51°19.94 2°37.11 -999 360 10.8 102850 80
2006-06-07 05:11:19 51°19.944 2°37.099 -999 1 10.8 102850 80
2006-06-07 05:11:25 51°19.948 2°37.09 -999 3 10.8 102850 80
2006-06-07 05:11:29 51°19.95 2°37.084 -999 354 10.8 102850 80
2006-06-07 05:11:34 51°19.953 2°37.077 -999 350 10.8 102850 80
2006-06-07 05:11:40 51°19.956 2°37.07 -999 354 10.8 102850 80
2006-06-07 05:11:45 51°19.958 2°37.064 -999 356 10.8 102850 80
2006-06-07 05:11:50 51°19.96 2°37.059 -999 352 10.8 102850 80
2006-06-07 05:11:52 51°19.961 2°37.057 -999 347 10.8 102850 80
2006-06-07 05:11:59 51°19.963 2°37.05 -999 337 10.8 102850 80
2006-06-07 05:12:05 51°19.965 2°37.045 -999 337 10.8 102850 80
2006-06-07 05:12:09 51°19.967 2°37.043 -999 346 10.8 102850 80
2006-06-07 05:12:13 51°19.968 2°37.04 -999 344 10.8 102850 80
2006-06-07 05:12:19 51°19.971 2°37.035 -999 344 10.8 102860 80
2006-06-07 05:12:24 51°19.972 2°37.032 -999 345 10.8 102860 80
2006-06-07 05:12:28 51°19.974 2°37.029 -999 345 10.8 102850 80
2006-06-07 05:12:35 51°19.976 2°37.025 -999 345 10.8 102850 80
2006-06-07 05:12:39 51°19.977 2°37.023 -999 342 10.8 102850 80
2006-06-07 05:12:44 51°19.978 2°37.02 -999 342 10.8 102850 80
2006-06-07 05:12:49 51°19.979 2°37.017 -999 341 10.8 102850 80
2006-06-07 05:12:55 51°19.981 2°37.013 -999 341 10.8 102850 80
2006-06-07 05:13:00 51°19.982 2°37.011 -999 341 10.8 102850 80
2006-06-07 05:13:04 51°19.983 2°37.008 -999 341 10.8 102850 80
2006-06-07 05:13:08 51°19.984 2°37.006 -999 343 10.8 102850 80
2006-06-07 05:13:15 51°19.985 2°37.003 -999 341 10.8 102850 80
2006-06-07 05:13:19 51°19.986 2°37.001 -999 341 10.8 102850 80
2006-06-07 05:13:24 51°19.986 2°36.998 -999 340 10.8 102850 80
2006-06-07 05:13:29 51°19.987 2°36.996 -999 339 10.8 102850 80
2006-06-07 05:13:35 51°19.988 2°36.993 -999 339 10.8 102850 80
2006-06-07 05:13:40 51°19.989 2°36.991 -999 332 10.8 102850 80
2006-06-07 05:13:45 51°19.989 2°36.989 -999 330 10.8 102850 80
2006-06-07 05:13:48 51°19.989 2°36.987 -999 329 10.8 102850 80
2006-06-07 05:13:55 51°19.99 2°36.984 -999 334 10.8 102850 80
2006-06-07 05:14:00 51°19.991 2°36.982 -999 331 10.8 102850 80
2006-06-07 05:14:04 51°19.991 2°36.98 -999 325 10.8 102850 80
2006-06-07 05:14:09 51°19.992 2°36.978 -999 325 10.8 102850 80
2006-06-07 05:14:15 51°19.992 2°36.976 -999 331 10.8 102850 80
2006-06-07 05:14:20 51°19.993 2°36.974 -999 331 10.8 102850 80
2006-06-07 05:14:24 51°19.993 2°36.973 -999 331 10.8 102850 80
2006-06-07 05:14:29 51°19.994 2°36.971 -999 332 10.8 102850 80
2006-06-07 05:14:34 51°19.994 2°36.969 -999 333 10.8 102850 80
2006-06-07 05:14:39 51°19.995 2°36.967 -999 333 10.8 102850 80
2006-06-07 05:14:44 51°19.995 2°36.965 -999 333 10.8 102850 80
2006-06-07 05:14:49 51°19.995 2°36.963 -999 333 10.8 102850 80
2006-06-07 05:14:55 51°19.996 2°36.961 -999 333 10.8 102850 80
2006-06-07 05:14:59 51°19.996 2°36.96 -999 333 10.8 102850 80
2006-06-07 05:15:05 51°19.996 2°36.958 -999 334 10.8 102850 80
2006-06-07 05:15:09 51°19.996 2°36.956 -999 334 10.8 102850 80
2006-06-07 05:15:15 51°19.997 2°36.954 -999 334 10.8 102850 80
2006-06-07 05:15:19 51°19.997 2°36.953 -999 330 10.8 102850 80
2006-06-07 05:15:24 51°19.997 2°36.951 -999 331 10.8 102850 80
2006-06-07 05:15:29 51°19.997 2°36.949 -999 332 10.8 102850 80
2006-06-07 05:15:35 51°19.997 2°36.947 -999 333 10.8 102850 80
2006-06-07 05:15:40 51°19.997 2°36.945 -999 333 10.8 102850 80
2006-06-07 05:15:43 51°19.998 2°36.944 -999 333 10.8 102850 80
2006-06-07 05:15:49 51°19.998 2°36.942 -999 331 10.8 102850 80
2006-06-07 05:15:53 51°19.998 2°36.941 -999 327 10.8 102850 80
2006-06-07 05:15:59 51°19.998 2°36.939 -999 327 10.8 102850 80
2006-06-07 05:16:05 51°19.998 2°36.937 -999 327 10.8 102850 80
2006-06-07 05:16:09 51°19.998 2°36.936 -999 325 10.8 102850 80
2006-06-07 05:16:13 51°19.998 2°36.935 -999 325 10.8 102850 80
2006-06-07 05:16:19 51°19.998 2°36.933 -999 325 10.8 102850 80
2006-06-07 05:16:25 51°19.998 2°36.93 -999 325 10.8 102850 80
2006-06-07 05:16:29 51°19.998 2°36.929 -999 325 10.8 102850 80
2006-06-07 05:16:33 51°19.998 2°36.928 -999 325 10.8 102850 80
2006-06-07 05:16:39 51°19.998 2°36.926 -999 325 10.8 102850 80
2006-06-07 05:16:44 51°19.998 2°36.925 -999 324 10.8 102850 80
2006-06-07 05:16:49 51°19.998 2°36.923 -999 324 10.8 102850 80
2006-06-07 05:16:53 51°19.997 2°36.922 -999 324 10.8 102850 80
2006-06-07 05:16:59 51°19.997 2°36.92 -999 324 10.8 102850 80
2006-06-07 05:17:04 51°19.997 2°36.918 -999 324 10.8 102850 80
2006-06-07 05:17:09 51°19.997 2°36.917 -999 324 10.8 102850 80
2006-06-07 05:17:12 51°19.997 2°36.916 -999 324 10.8 102850 80
2006-06-07 05:17:19 51°19.997 2°36.913 -999 324 10.8 102850 80
2006-06-07 05:17:24 51°19.996 2°36.912 -999 324 10.8 102850 80
2006-06-07 05:17:29 51°19.996 2°36.91 -999 324 10.8 102850 80
2006-06-07 05:17:35 51°19.996 2°36.908 -999 324 10.8 102850 80
2006-06-07 05:17:39 51°19.996 2°36.908 -999 324 10.8 102850 80
2006-06-07 05:17:45 51°19.995 2°36.905 -999 324 10.8 102850 80
2006-06-07 05:17:49 51°19.995 2°36.905 -999 324 10.8 102850 80
2006-06-07 05:17:55 51°19.995 2°36.902 -999 324 10.8 102850 80
2006-06-07 05:18:00 51°19.995 2°36.901 -999 324 10.8 102850 80
2006-06-07 05:18:05 51°19.994 2°36.899 -999 324 10.8 102850 80
2006-06-07 05:18:08 51°19.994 2°36.899 -999 324 10.8 102850 80
2006-06-07 05:18:15 51°19.994 2°36.896 -999 324 10.8 102850 80
2006-06-07 05:18:19 51°19.994 2°36.896 -999 324 10.8 102850 80
2006-06-07 05:18:24 51°19.993 2°36.894 -999 334 10.8 102850 80
2006-06-07 05:18:28 51°19.993 2°36.893 -999 339 10.8 102850 80
2006-06-07 05:18:35 51°19.993 2°36.891 -999 336 10.8 102850 80
2006-06-07 05:18:39 51°19.992 2°36.89 -999 335 10.8 102850 80
2006-06-07 05:18:45 51°19.992 2°36.888 -999 332 10.8 102850 80
2006-06-07 05:18:49 51°19.992 2°36.887 -999 332 10.8 102850 80
2006-06-07 05:18:55 51°19.991 2°36.885 -999 330 10.8 102850 80
2006-06-07 05:18:59 51°19.991 2°36.884 -999 330 10.8 102850 80
2006-06-07 05:19:04 51°19.99 2°36.882 -999 330 10.8 102850 80
2006-06-07 05:19:10 51°19.99 2°36.881 -999 330 10.8 102850 80
2006-06-07 05:19:12 51°19.99 2°36.88 -999 327 10.8 102850 80
2006-06-07 05:19:19 51°19.989 2°36.878 -999 326 10.9 102850 80
2006-06-07 05:19:24 51°19.989 2°36.877 -999 326 10.9 102850 80
2006-06-07 05:19:28 51°19.989 2°36.876 -999 326 10.8 102850 80
2006-06-07 05:19:35 51°19.988 2°36.874 -999 326 10.8 102850 80
2006-06-07 05:19:39 51°19.988 2°36.873 -999 324 10.9 102850 80
2006-06-07 05:19:44 51°19.987 2°36.871 -999 324 10.9 102850 80
2006-06-07 05:19:49 51°19.987 2°36.87 -999 323 10.9 102850 80
2006-06-07 05:19:55 51°19.986 2°36.868 -999 321 10.8 102850 80
2006-06-07 05:19:59 51°19.986 2°36.867 -999 321 10.9 102850 80
2006-06-07 05:20:05 51°19.985 2°36.866 -999 43 10.9 102850 80
2006-06-07 05:20:09 51°19.985 2°36.864 -999 313 10.8 102850 80
2006-06-07 05:20:12 51°19.985 2°36.864 -999 312 10.8 102850 80
2006-06-07 05:20:19 51°19.984 2°36.862 -999 312 10.8 102850 80
2006-06-07 05:20:24 51°19.984 2°36.86 -999 309 10.8 102850 80
2006-06-07 05:20:28 51°19.983 2°36.859 -999 303 10.8 102850 80
2006-06-07 05:20:33 51°19.983 2°36.858 -999 297 10.8 102850 80
2006-06-07 05:20:40 51°19.982 2°36.855 -999 291 10.9 102850 80
2006-06-07 05:20:45 51°19.982 2°36.854 -999 290 10.9 102850 80
2006-06-07 05:20:49 51°19.981 2°36.853 -999 294 10.9 102850 80
2006-06-07 05:20:55 51°19.98 2°36.852 -999 289 10.9 102850 80
2006-06-07 05:20:59 51°19.98 2°36.85 -999 291 10.9 102850 80
2006-06-07 05:21:05 51°19.979 2°36.849 -999 293 10.9 102850 80
2006-06-07 05:21:09 51°19.979 2°36.848 -999 295 10.9 102850 80
2006-06-07 05:21:12 51°19.979 2°36.847 -999 299 10.9 102850 80
2006-06-07 05:21:19 51°19.978 2°36.845 -999 299 10.9 102850 80
2006-06-07 05:21:25 51°19.977 2°36.843 -999 299 10.9 102850 80
2006-06-07 05:21:28 51°19.977 2°36.842 -999 299 10.8 102850 80
2006-06-07 05:21:35 51°19.976 2°36.84 -999 298 10.8 102850 80
2006-06-07 05:21:40 51°19.976 2°36.839 -999 299 10.9 102850 80
2006-06-07 05:21:45 51°19.976 2°36.838 -999 300 10.9 102850 80
2006-06-07 05:21:49 51°19.976 2°36.837 -999 301 10.9 102850 80
2006-06-07 05:21:55 51°19.976 2°36.836 -999 302 10.9 102850 80
2006-06-07 05:21:59 51°19.976 2°36.836 -999 301 10.9 102850 80
2006-06-07 05:22:04 51°19.976 2°36.835 -999 301 10.9 102850 80
2006-06-07 05:22:09 51°19.977 2°36.835 -999 298 10.9 102850 80
2006-06-07 05:22:15 51°19.978 2°36.835 -999 298 10.9 102850 80
2006-06-07 05:22:19 51°19.979 2°36.835 -999 297 10.9 102850 80
2006-06-07 05:22:24 51°19.98 2°36.835 -999 296 10.9 102850 80
2006-06-07 05:22:29 51°19.981 2°36.836 -999 296 10.9 102850 80
2006-06-07 05:22:35 51°19.982 2°36.837 -999 295 10.9 102850 80
2006-06-07 05:22:39 51°19.983 2°36.838 -999 295 10.9 102850 80
2006-06-07 05:22:45 51°19.984 2°36.84 -999 295 10.9 102850 80
2006-06-07 05:22:49 51°19.985 2°36.842 -999 295 10.9 102850 80
2006-06-07 05:22:55 51°19.986 2°36.844 -999 290 10.9 102850 80
2006-06-07 05:23:00 51°19.986 2°36.846 -999 280 10.9 102850 80
2006-06-07 05:23:05 51°19.987 2°36.849 -999 277 10.9 102850 80
2006-06-07 05:23:08 51°19.987 2°36.851 -999 277 10.9 102850 80
2006-06-07 05:23:15 51°19.987 2°36.856 -999 277 10.9 102850 80
2006-06-07 05:23:19 51°19.987 2°36.858 -999 277 10.9 102850 80
2006-06-07 05:23:25 51°19.987 2°36.863 -999 274 10.9 102850 80
2006-06-07 05:23:29 51°19.987 2°36.866 -999 274 10.9 102860 80
2006-06-07 05:23:35 51°19.986 2°36.871 -999 274 10.9 102860 80
2006-06-07 05:23:40 51°19.985 2°36.876 -999 274 10.9 102860 80
2006-06-07 05:23:45 51°19.984 2°36.88 -999 274 10.9 102850 80
2006-06-07 05:23:48 51°19.984 2°36.883 -999 274 10.9 102850 80
2006-06-07 05:23:55 51°19.982 2°36.89 -999 277 10.9 102850 80
2006-06-07 05:23:59 51°19.982 2°36.895 -999 283 10.9 102850 80
2006-06-07 05:24:04 51°19.98 2°36.9 -999 287 10.9 102850 80
2006-06-07 05:24:09 51°19.979 2°36.906 -999 287 10.9 102850 80